Weather History for Clinton-Sherman, OK

Change the Weather History Date:

Saturday, March 2, 2013

  Actual Average Record
Temperature  
Mean Temperature 44 °F -  
Max Temperature 61 °F 53 °F 77 °F (2008)
Min Temperature 26 °F 30 °F 8 °F (2014)
Degree Days  
Heating Degree Days 22    
Moisture  
Dew Point 30 °F    
Average Humidity 75    
Maximum Humidity 93    
Minimum Humidity 39    
Precipitation  
Precipitation 0.00 in - - ()
Sea Level Pressure  
Sea Level Pressure 30.32 in    
Wind  
Wind Speed 7 mph (West)    
Max Wind Speed 13 mph    
Max Gust Speed -    
Visibility 8 miles    
Events      
Averages and records for this station are not official NWS values.
T = Trace of Precipitation, MM = Missing Value Source: NWS Daily Summary

Daily Weather History Graph

Daily Weather History Graph

Search for Another Location

Airport:

Trip Planner

Search our weather history database for the weather conditions in past years. The results will help you decide how hot, cold, wet, or windy it might be!

Date:

Astronomy

Mar. 02, 2013 Rise Set
Actual Time 7:04 AM CST 6:33 PM CST
Civil Twilight 6:39 AM CST 6:58 PM CST
Nautical Twilight 6:09 AM CST 7:28 PM CST
Astronomical Twilight 5:40 AM CST 7:57 PM CST
Moon No Moon Rise 9:46 AM CST (3/2)
Length of Visible Light 12h 19m
Length of Day
11h 28m
Waning Gibbous, 74% of the Moon is Illuminated
Mar 2
Waning Gibbous
Mar 4
Last Quarter
Mar 11
New
Mar 19
First Quarter
Mar 27
Full

Hourly Weather History & Observations

Time (CST) Temp. Windchill Dew Point Humidity Pressure Visibility Wind Dir Wind Speed Gust Speed Precip Events Conditions
12:53 AM 28.9 °F 20.4 °F 26.1 °F 89% 30.39 in 8.0 mi NNW 9.2 mph - N/A   Clear
1:31 AM 30.2 °F 21.3 °F 26.6 °F 86% 30.37 in 9.0 mi NNW 10.4 mph - N/A   Mostly Cloudy
1:53 AM 30.9 °F 24.3 °F 28.0 °F 89% 30.40 in 9.0 mi NNW 6.9 mph - N/A   Overcast
2:53 AM 30.0 °F 22.4 °F 27.0 °F 88% 30.39 in 8.0 mi North 8.1 mph - N/A   Mostly Cloudy
3:12 AM 28.4 °F 22.2 °F 26.6 °F 93% 30.36 in 7.0 mi North 5.8 mph - N/A   Scattered Clouds
3:53 AM 28.0 °F - 26.1 °F 92% 30.38 in 7.0 mi Calm Calm - N/A   Clear
4:20 AM 28.4 °F 24.6 °F 24.8 °F 86% 30.35 in 7.0 mi North 3.5 mph - N/A   Partly Cloudy
4:37 AM 26.6 °F - 24.8 °F 93% 30.36 in 6.0 mi Calm Calm - N/A   Mostly Cloudy
4:53 AM 27.0 °F - 25.0 °F 92% 30.39 in 6.0 mi Calm Calm - N/A   Overcast
5:34 AM 26.6 °F 20.0 °F 24.8 °F 93% 30.37 in 6.0 mi West 5.8 mph - N/A   Scattered Clouds
5:42 AM 26.6 °F 19.1 °F 24.8 °F 93% 30.37 in 6.0 mi West 6.9 mph - N/A   Mostly Cloudy
6:53 AM 26.1 °F - 23.0 °F 88% 30.41 in 6.0 mi Calm Calm - N/A   Clear
7:53 AM 28.0 °F 24.2 °F 26.1 °F 92% 30.42 in 5.0 mi NNW 3.5 mph - N/A   Clear
8:53 AM 33.1 °F 30.0 °F 28.0 °F 82% 30.43 in 9.0 mi WNW 3.5 mph - N/A   Clear
9:53 AM 37.0 °F 33.3 °F 30.0 °F 76% 30.41 in 10.0 mi West 4.6 mph - N/A   Clear
10:53 AM 42.1 °F 39.2 °F 28.9 °F 60% 30.39 in 10.0 mi SSW 4.6 mph - N/A   Clear
11:53 AM 45.0 °F 40.6 °F 30.0 °F 56% 30.36 in 10.0 mi SW 8.1 mph - N/A   Mostly Cloudy
12:53 PM 48.9 °F - 33.1 °F 54% 30.32 in 10.0 mi SSW 9.2 mph - N/A   Overcast
1:53 PM 54.0 °F - 34.0 °F 47% 30.27 in 10.0 mi SW 10.4 mph - N/A   Clear
2:53 PM 57.9 °F - 34.0 °F 41% 30.24 in 10.0 mi WSW 5.8 mph - N/A   Clear
3:53 PM 60.1 °F - 35.1 °F 39% 30.22 in 10.0 mi WSW 6.9 mph - N/A   Clear
4:53 PM 61.0 °F - 36.0 °F 39% 30.20 in 10.0 mi NW 8.1 mph - N/A   Clear
5:53 PM 57.9 °F - 37.9 °F 47% 30.20 in 10.0 mi Calm Calm - N/A   Clear
7:53 PM 45.0 °F 40.6 °F 36.0 °F 71% 30.21 in 10.0 mi SSE 8.1 mph - N/A   Clear
8:53 PM 41.0 °F 34.7 °F 35.1 °F 79% 30.21 in 10.0 mi South 10.4 mph - N/A   Clear
9:53 PM 41.0 °F 34.7 °F 34.0 °F 76% 30.21 in 10.0 mi SSE 10.4 mph - N/A   Clear
10:53 PM 39.0 °F 31.4 °F 33.1 °F 79% 30.19 in 10.0 mi South 12.7 mph - N/A   Clear
11:53 PM 39.9 °F 32.9 °F 33.1 °F 77% 30.17 in 10.0 mi South 11.5 mph - N/A   Clear